Location: Catstown
(52.4386°N, 7.2633°W)
Time: 13:10:41
(UTC+00:00)

Cosmos 1975 Rocket - Pass Details

Date: 18 September 2020
Orbit: 603 x 634 km, 82.5° (Epoch: 25 October)

Event Time Altitude Azimuth Distance (km) Brightness Sun altitude
Rises 19:03:44 0° 351° (N) 2,888 6.7 -5.0°
Reaches altitude 10° 19:06:00 10° 355° (N) 1,975 5.9 -5.4°
Maximum altitude 19:10:20 62° 76° (ENE) 689 3.1 -6.0°
Drops below altitude 10° 19:14:36 10° 158° (SSE) 1,948 5.3 -6.7°
Sets 19:16:49 0° 162° (SSE) 2,846 6.2 -7.0°
